sat.trackr.live / text

‹ back to catalog

SPARTAN

NORAD 48964 · 2021-059CP

PAYLOAD ACTIVE UNKNOWN

§ Identity

Operator
Country
BUL
Launch date
2021-06-30
Launch site
AFETR
Launch vehicle
Mass (kg)
RCS (m²)

External: N2YO · Heavens-Above · Gunter

§ Orbital elements

Epoch: 2026-09-15T08:14:30.785568Z

Period
89.40 min
Inclination
97.6567°
Eccentricity
0.0002146
Mean motion
16.10696245 rev/d
Perigee alt
243.5 km
Apogee alt
246.4 km
Semi-major
6,623.1 km
B*
6.3032e-4
RAAN
110.6224°
Arg perigee
231.8651°
Mean anomaly
128.2439°
Rev number
29,226

§ Raw data

SPARTAN1 48964U 21059CP  26258.34341187  .00610163  20059-3  63032-3 0  99952 48964  97.6567 110.6224 0002146 231.8651 128.2439 16.10696245292268

JSON: /api/v1/satellites/48964 · /tle

For live sub-satellite position, see the globe view (requires WebGL).

§ Visibility from observer

Set your observer location to see the next 7 days of passes ≥ 10°. The values pass through the URL so the page stays shareable.

No JS? Fill the form by hand. The geolocation button needs JavaScript.